Hourly Data Report for September 28, 2017

All times are specified in Local Standard Time (LST). Add 1 hour to adjust for Daylight Saving Time where and when it is observed.

BAKER LAKE A
NUNAVUT

64°17'56.000" N
96°04'40.000" W
18.60 m
2300503
71926
YBK

Download Data

Hourly Data (September 2017)
Hourly Data Report for September 28, 2017
Temp Definition
°C
Dew Point Temp Definition
°C
Rel Hum Definition
%
Wind Dir Definition
10's deg

Wind Spd Definition
km/h
Visibility Definition
km
Stn Press Definition
kPa
Hmdx Definition


Wind Chill Definition


Weather Definition


TIME
00:00 Legend Double Dagger 0.5 -2.3 82 34 26 24.1 101.91     Mostly Cloudy
01:00 Legend Double Dagger 0.3 -3.0 78 34 18 24.1 102.00     LegendNANA
02:00 Legend Double Dagger 0.7 -4.0 71 34 37 24.1 102.04     LegendNANA
03:00 Legend Double Dagger 1.0 -3.2 73 34 31 24.1 102.11     Drizzle
04:00 Legend Double Dagger -0.5 -2.3 87 33 22 24.1 102.18   -6 LegendNANA
05:00 Legend Double Dagger -0.2 -3.4 79 32 16 24.1 102.24   -5 LegendNANA
06:00 Legend Double Dagger -0.2 -3.1 81 33 17 24.1 102.30   -5 Mostly Cloudy
07:00 Legend Double Dagger 0.1 -4.8 70 34 23 32.2 102.33     LegendNANA
08:00 Legend Double Dagger -1.0 -6.8 65 34 21 32.2 102.38   -7 LegendNANA
09:00 Legend Double Dagger 0.3 -6.8 59 33 22 32.2 102.41     Mostly Cloudy
10:00 Legend Double Dagger 0.6 -5.4 64 32 22 32.2 102.46     LegendNANA
11:00 Legend Double Dagger 0.9 -6.7 57 33 17 32.2 102.51     LegendNANA
12:00 Legend Double Dagger 1.3 -6.7 55 35 18 32.2 102.50     Mostly Cloudy
13:00 Legend Double Dagger 1.5 -6.4 56 30 17 32.2 102.48     LegendNANA
14:00 Legend Double Dagger 0.8 -6.8 57 29 9 32.2 102.47     LegendNANA
15:00 Legend Double Dagger 0.5 -6.6 59 29 11 32.2 102.45     Mostly Cloudy
16:00 Legend Double Dagger 0.7 -6.7 58 27 14 32.2 102.40     LegendNANA
17:00 Legend Double Dagger 0.7 -6.6 58 23 4 32.2 102.40     LegendNANA
18:00 Legend Double Dagger 0.0 -5.8 65 33 3 32.2 102.34   -1 Mostly Cloudy
19:00 Legend Double Dagger -0.4 -4.8 72 36 2 24.1 102.24   -1 LegendNANA
20:00 Legend Double Dagger -0.3 -5.0 71 20 4 24.1 102.20   -2 LegendNANA
21:00 Legend Double Dagger 0.7 -4.5 68 17 20 24.1 102.12     Cloudy
22:00 Legend Double Dagger 0.6 -3.9 72 17 21 24.1 102.00     LegendNANA
23:00 Legend Double Dagger 1.0 -3.4 73 17 21 24.1 101.89     LegendNANA

Notes on Data Quality.

Legend

  • E = Estimated
  • M = Missing
  • NA = Not Available
  • ‡ = Partner data that is not subject to review by the National Climate Archives
Date modified: